This is the latest recevied weather packets stored in our database for station/object AA4OM-2. If no packets are shown the sender has not sent any weather packets the latest 10 day(s).
| Time | Temp. | Humidity | Pressure | Rain* | Wind** | Luminosity | Snow |
|---|---|---|---|---|---|---|---|
| 1777056250 | 21.67° C | 79% | 1010.3 hPa | 0 mm | - | 602 W/m² | - |
| 1777055947 | 21.67° C | 83% | 1010.1 hPa | 0 mm | - | 588 W/m² | - |
| 1777055644 | 21.11° C | 86% | 1010.3 hPa | 0 mm | - | 781 W/m² | - |
| 1777055339 | 20.56° C | 87% | 1010.4 hPa | 0 mm | - | 576 W/m² | - |
| 1777055038 | 20° C | 88% | 1010.5 hPa | 0 mm | - | 294 W/m² | - |
| 1777054734 | 20° C | 88% | 1010.8 hPa | 0 mm | - | 230 W/m² | - |
| 1777054431 | 20° C | 86% | 1010.7 hPa | 0 mm | - | 133 W/m² | - |
| 1777054130 | 20° C | 88% | 1010.7 hPa | 0 mm | - | 155 W/m² | - |
| 1777053825 | 20° C | 87% | 1010.7 hPa | 0 mm | - | 254 W/m² | - |
| 1777053525 | 20° C | 86% | 1010.9 hPa | 0 mm | - | 372 W/m² | - |
| 1777053221 | 20° C | 89% | 1010.8 hPa | 0 mm | - | 379 W/m² | - |
| 1777052917 | 19.44° C | 89% | 1011 hPa | 0 mm | - | 341 W/m² | - |
| 1777052613 | 19.44° C | 90% | 1010.7 hPa | 0 mm | - | 304 W/m² | - |
| 1777052308 | 18.89° C | 89% | 1010.7 hPa | 0 mm | - | 379 W/m² | - |
| 1777051999 | 18.89° C | 90% | 1010.9 hPa | 3.05 mm | - | 266 W/m² | - |
| 1777051696 | 18.89° C | 89% | 1010.9 hPa | 13.72 mm | - | 274 W/m² | - |
| 1777051391 | 19.44° C | 86% | 1011.3 hPa | 9.65 mm | - | 109 W/m² | - |
| 1777051088 | 19.44° C | 83% | 1011.4 hPa | 0 mm | - | 89 W/m² | - |
| 1777050783 | 20° C | 80% | 1011.4 hPa | 0 mm | - | 53 W/m² | - |
| 1777050479 | 20.56° C | 79% | 1011.2 hPa | 0 mm | - | 76 W/m² | - |
| 1777050173 | 21.11° C | 76% | 1011.2 hPa | 0 mm | - | 40 W/m² | - |
| 1777049868 | 21.67° C | 75% | 1011.1 hPa | 0 mm | - | 21 W/m² | - |
| 1777049564 | 21.67° C | 74% | 1011 hPa | 0 mm | - | 39 W/m² | - |
| 1777049262 | 22.22° C | 74% | 1011.2 hPa | 0 mm | - | 67 W/m² | - |
| 1777048959 | 22.22° C | 74% | 1011.3 hPa | 0 mm | - | 75 W/m² | - |
* Rain latest hour (hover to see other rain measurements)
** Current wind speed in m/s (hover to see current wind gust speed)